TimeEDT,TemperatureF,Dew PointF,Humidity,Sea Level PressureIn,VisibilityMPH,Wind Direction,Wind SpeedMPH,Gust SpeedMPH,PrecipitationIn,Events,Conditions,WindDirDegrees,DateUTC
12:53 AM,43.0,35.1,74,30.17,10.0,Calm,Calm,-,N/A,,Clear,0,2012-10-12 04:53:00
1:53 AM,39.9,35.1,83,30.16,10.0,Calm,Calm,-,N/A,,Clear,0,2012-10-12 05:53:00
2:53 AM,39.0,35.1,86,30.14,10.0,Calm,Calm,-,N/A,,Clear,0,2012-10-12 06:53:00
3:53 AM,37.9,34.0,86,30.13,10.0,Calm,Calm,-,N/A,,Clear,0,2012-10-12 07:53:00
4:53 AM,37.0,34.0,89,30.13,9.0,Calm,Calm,-,N/A,,Clear,0,2012-10-12 08:53:00
5:53 AM,37.9,34.0,86,30.12,10.0,Calm,Calm,-,N/A,,Clear,0,2012-10-12 09:53:00
6:53 AM,37.9,35.1,89,30.13,10.0,Calm,Calm,-,N/A,,Clear,0,2012-10-12 10:53:00
7:53 AM,39.9,37.0,89,30.13,7.0,Calm,Calm,-,N/A,,Clear,0,2012-10-12 11:53:00
8:53 AM,46.0,39.9,79,30.16,3.0,WNW,5.8,-,N/A,,Haze,290,2012-10-12 12:53:00
10:53 AM,57.0,37.0,47,30.19,10.0,NW,17.3,23.0,N/A,,Clear,310,2012-10-12 14:53:00
12:53 PM,55.0,37.9,53,30.24,10.0,NNW,13.8,20.7,N/A,,Mostly Cloudy,340,2012-10-12 16:53:00
1:53 PM,55.0,33.1,43,30.24,10.0,NNW,18.4,24.2,N/A,,Clear,340,2012-10-12 17:53:00
2:53 PM,55.9,30.9,39,30.25,10.0,NW,17.3,23.0,N/A,,Scattered Clouds,310,2012-10-12 18:53:00
3:53 PM,55.9,28.0,34,30.26,10.0,NW,18.4,25.3,N/A,,Partly Cloudy,320,2012-10-12 19:53:00
4:53 PM,55.0,27.0,34,30.27,10.0,NNW,12.7,-,N/A,,Partly Cloudy,330,2012-10-12 20:53:00
6:53 PM,48.0,28.0,46,30.33,10.0,North,8.1,-,N/A,,Clear,10,2012-10-12 22:53:00
7:53 PM,46.0,26.1,46,30.37,10.0,North,8.1,-,N/A,,Clear,10,2012-10-12 23:53:00
8:53 PM,44.1,26.1,49,30.39,10.0,North,6.9,-,N/A,,Clear,10,2012-10-13 00:53:00
10:53 PM,39.0,26.1,60,30.43,10.0,North,4.6,-,N/A,,Clear,10,2012-10-13 02:53:00
11:53 PM,39.0,26.1,60,30.47,10.0,NNE,5.8,-,N/A,,Clear,20,2012-10-13 03:53:00